Location: Peterborough
(44.3091°N, 78.3197°W)
Time: 03:17:38
(UTC-04:00)

Tiros 1 despin weight - Pass Details

Date: 26 March 2023
Orbit: 586 x 632 km, 48.2° (Epoch: 08 June)

Event Time Altitude Azimuth Distance (km) Brightness Sun altitude
Rises 23:47:40 0° 273° (W) 2,812 - -39.0°
Reaches altitude 10° 23:50:00 10° 278° (W) 1,916 - -39.2°
Maximum altitude 23:54:17 51° 355° (N) 748 - -39.5°
Drops below altitude 10° 23:58:37 10° 73° (ENE) 1,941 - -39.9°
Sets 00:00:59 0° 78° (ENE) 2,852 - -40.1°
